NOAA NWS Hourly Roundups by Site

Regional Weather Roundup for Seattle, WA

To Select Another Site Choose from List

Select Site:  

000
ASUS46 KSEW 130110
RWRWA

WASHINGTON REGIONAL WEATHER ROUNDUP
NATIONAL WEATHER SERVICE SEATTLE WA
600 PM PDT WED AUG 12 2020

NOTE:"FAIR" INDICATES FEW OR NO CLOUDS BELOW 12,000 FEET WITH NO
SIGNIFICANT WEATHER AND/OR OBSTRUCTIONS TO VISIBILITY.

WAZ507-509-555>559-130200-
SEATTLE, TACOMA, EVERETT, AND VICINITY

CITY           SKY/WX    TMP DP  RH WIND       PRES   REMARKS
EVERETT        CLOUDY    64  45  49 W6        30.09S
BOEING FIELD   PTSUNNY   68  43  40 W6        30.07S
RENTON         SUNNY     70  39  32 VRB6      30.06F
SEATAC AIRPORT MOSUNNY   69  45  41 NW6       30.08S
JBLM-MCCHORD   CLOUDY    71  41  34 NW9       30.07S
PUYALLUP       FAIR      70  39  32 CALM      30.08S
BREMERTON      MOSUNNY   68  46  45 VRB5      30.08S
JBLM-FT LEWIS  MOSUNNY   72  48  41 NW8       30.05F
TACOMA NARROWS SUNNY     67  42  40 SE6       30.07S
$$

WAZ001-503-506-510-514-515-130200-
NORTH INTERIOR

CITY           SKY/WX    TMP DP  RH WIND       PRES   REMARKS
BELLINGHAM     SUNNY     67  48  50 S8        30.07S
FRIDAY HARBOR  SUNNY     66  45  46 SW9G17    30.08F
EASTSOUND      SUNNY     68  48  49 S7        30.06S
PORT ANGELES   CLOUDY    62  46  55 W12       30.10R
EDIZ HOOK      CLOUDY   N/A N/A N/A W12G17    30.09S
PORT TOWNSEND  CLOUDY    66  48  52 SW5       30.07S
NAS WHIDBEY    MOSUNNY   66  49  54 VRB6      30.12S
ARLINGTON        N/A     69  46  43 W9        30.08S
BURLINGTON     SUNNY     72  45  37 SW5       30.08R
$$

WAZ020-022-039-040-504-511-512-130200-
SOUTHWEST INTERIOR

CITY           SKY/WX    TMP DP  RH WIND       PRES   REMARKS
SHELTON        PTSUNNY   70  47  43 SW13      30.04S
OLYMPIA        CLOUDY    71  41  33 VRB6      30.06S
CHEHALIS       CLOUDY    72  45  37 VRB3      30.07F
KELSO          CLOUDY    69  47  45 VRB3      30.07S
VANCOUVER      SUNNY     72  44  36 NW8       30.05F
SCAPPOOSE, OR  MOSUNNY   70  45  40 NW7       30.06R
PORTLAND, OR   MOSUNNY   72  43  35 NW9G16    30.06S
$$

WAZ021-516-517-130200-
WASHINGTON COAST

CITY           SKY/WX    TMP DP  RH WIND       PRES   REMARKS
FORKS          SUNNY     60  47  61 NW10      30.12R
HOQUIAM        SUNNY     63  48  58 W14       30.11S
ASTORIA, OR    SUNNY     65  49  56 NW12      30.10S
$$

WAZ019-023-024-040-567>569-130200-
CASCADE MOUNTAINS AND COLUMBIA GORGE

CITY           SKY/WX    TMP DP  RH WIND       PRES   REMARKS
STAMPEDE PASS  MOSUNNY   52  36  54 VRB7      30.10S
TROUTDALE, OR  SUNNY     74  43  32 NW8       30.05S
HOOD RIVER, OR NOT AVBL
THE DALLES, OR MOSUNNY   74  45  35 NW22G30   29.95S
$$

WAZ026-027-041>044-520-521-130200-
EAST SLOPES

CITY           SKY/WX    TMP DP  RH WIND       PRES   REMARKS
OMAK           SUNNY     81  22  11 SE9       29.86S
WENATCHEE      SUNNY     77  33  20 NW15      29.89S
ELLENSBURG     SUNNY     68  37  32 NW29G43   29.96R
YAKIMA         SUNNY     80  26  13 VRB3      29.92R
SUNNYSIDE ARPT CLEAR     79  35  20 CALM      29.91
YAKIMA TC      FAIR      77  32  19 NE16      29.91S
$$

WAZ028-034-035-130200-
COLUMBIA BASIN

CITY           SKY/WX    TMP DP  RH WIND       PRES   REMARKS
EPHRATA        SUNNY     77  26  15 SW17G26   29.90S
MOSES LAKE     SUNNY     79  31  17 S13       29.92R
PASCO          SUNNY     82  30  15 SW8       29.91F
RICHLAND ARPT  CLEAR     83  32  15 S9        29.90S
HERMISTON, OR  MOSUNNY   81  33  17 SW13      29.91F
$$

WAZ036>038-130200-
NORTHEAST WASHINGTON

CITY           SKY/WX    TMP DP  RH WIND       PRES   REMARKS
SPOKANE GEIGER MOSUNNY   69  32  25 SW14G23   29.99S
SPOKANE FELTS  MOSUNNY   71  30  21 SW12      29.98S
FAIRCHILD AFB  SUNNY     69  28  21 S10       29.99R
COEURDALENE,ID MOSUNNY   68  32  26 SW12      30.00R
DEER PARK      MOSUNNY   70  34  26 S15       29.97R
$$

WAZ029>033-130200-
SOUTHEAST WASHINGTON

CITY           SKY/WX    TMP DP  RH WIND       PRES   REMARKS
PULLMAN        PTSUNNY   65  45  48 SE9       30.03R
LEWISTON, ID   PTSUNNY   67  48  50 E8        29.99F
WALLA WALLA    MOSUNNY   75  33  21 SW8       29.95S
PENDLETON, OR  MOSUNNY   77  28  16 W15G25    29.95F
$$



 

View Past Reports for Seattle, WA.

Products Courtesy of NOAA-NWS
NWS Information Parsing Script by Ken True at Saratoga Weather - Script by SE Lincoln Weather.